Regional Weather Roundup
Issued by NWS New Orleans/Baton Rouge, LA

Home | Current Version | Previous Version | Text Only | Print | Product List | Glossary Off
Versions: 1 2 3 4 5 6 7 8 9 10 11 12 13 14 15 16 17 18 19 20 21 22 23 24 25 26 27 28 29 30 31 32 33 34 35 36 37 38 39 40 41 42 43 44 45 46 47 48 49 50

000
ASUS44 KLIX 250710
RWRLIX
NEW ORLEANS REGIONAL WEATHER ROUNDUP
NATIONAL WEATHER SERVICE NEW ORLEANS LA
200 AM CDT SAT OCT 25 2014

NOTE: "FAIR" INDICATES FEW OR NO CLOUDS BELOW 12,000 FEET WITH NO
      SIGNIFICANT WEATHER AND/OR OBSTRUCTIONS TO VISIBILITY.
      SKY/WX - SKY CONDITION AND SIGNIFICANT WEATHER.
      TMP - AIR TEMPERATURE.     DP    - DEWPOINT TEMPERATURE.
      RH  - RELATIVE HUMIDITY.   PRES  - PRESSURE.
      HI  - HEAT INDEX.          WCI   - WIND CHILL INDEX.

*  THESE STATIONS ARE NOT NWS OR FAA STATIONS AND ARE NOT UNDER
   NWS QUALITY CONTROL.

LAZ038-040-048-061>063-065>067-069-250800-
SOUTHEAST LOUISIANA

CITY           SKY/WX    TMP DP  RH WIND       PRES   REMARKS
N.O. AUDUBON   NOT AVBL
N.O. INTL ARPT CLEAR     63  52  67 N8        30.10S
N.O. LAKEFRONT CLEAR     67  52  58 N15       30.10S
N.O. DOWNTOWN*   N/A     66  48  52 N6        30.11S
SLIDELL        CLEAR     49  45  86 CALM      30.09F
BATON ROUGE    CLEAR     51  48  89 CALM      30.11F
BOOTHVILLE     CLEAR     68  58  70 N7        30.08S
BELLE CHASSE   CLEAR     52  49  89 CALM      30.10S
BOGALUSA*        N/A     47  44  89 CALM      30.12S
NEW ROADS*       N/A     49  48  97 CALM      30.12F
GONZALES*        N/A     52  52 100 CALM      30.11S
HAMMOND*       CLEAR     50  46  87 CALM      30.12S
HOUMA*         CLEAR     56  50  81 N5        30.10S
PORT FOURCHON* NOT AVBL

$$

MSZ070-080>082-250800-
SOUTHERN MISSISSIPPI

CITY           SKY/WX    TMP DP  RH WIND       PRES   REMARKS
MCCOMB         CLEAR     56  46  69 N6        30.11F
GULFPORT       CLEAR     52  47  83 NW3       30.08S
BILOXI         CLEAR     59  47  66 N7        30.08S
PASCAGOULA     CLEAR     45  44  97 CALM      30.08S

$$

COASTAL OBSERVATIONS
LAKE AND NEARSHORE STATIONS

STATION/POSITION TIME  TEMP    WIND        PRES    WAVE
                       AIR SEA DIR/SP/G            HT/PER
                 (UTC) (F)     (DEG/KT/KT) (MB)    (FT/S)
PASCAGOULA       0700   58     360/  8/  9 1017.7
WAVELAND YACHT   0700   63     340/  7/  9 1018.0
GRAND ISLE       0700   69 72   10/ 11/ 14 1019.1
SOUTHWEST PASS   0700   71 80              1018.4
NEW CANAL        0700   68 70   10/ 11/ 14 1019.5
SHELL BEACH      0700   69 67  360/ 13/ 15 1018.6

OFFSHORE STATIONS

STATION/POSITION TIME  TEMP    WIND        PRES    WAVE
                       AIR SEA DIR/SP/G            HT/PER
                 (UTC) (F)     (DEG/KT/KT) (MB)    (FT/S)
64 S DAUPHIN ISL 0624   74 78   20/ 14/ 17 1017.9    3/ 4

$$




USA.gov is the U.S. government's official web portal to all federal, state and local government web resources and services.